Location: Unspecified
(35.7250°N, 0.0000°E)
Time: 18:03:21
(UTC+00:00)

Courier 1B Rocket - Pass Details

Date: 19 June 2019
Orbit: 920 x 1202 km, 28.3° (Epoch: 24 August)

Event Time Altitude Azimuth Distance (km) Brightness Sun altitude
Exits shadow 03:07:01 - 176° (S) 2,869 7.1 -16.3°
Reaches altitude 10° 03:07:28 10° 173° (S) 2,807 7.0 -16.3°
Maximum altitude 03:09:46 12° 153° (SSE) 2,640 7.1 -16.0°
Drops below altitude 10° 03:12:01 10° 133° (SE) 2,743 7.4 -15.6°
Sets 03:16:40 0° 103° (ESE) 3,632 8.5 -15.0°
